Retour au catalogue

OPS 9332

IDSCS 17

ActifMilitaireMEO
NORAD 2863·PAYLOAD·🇺🇸 United States

Lancé Jul 1, 1967 depuis Cape Canaveral Space Force Station

Loading…

Prochains Passages (prochaines 24 heures)

TLE

FraisSource: Space-Track

Époque: Sep 14, 2026, 14:16 UTC

1 02863U 67066B   26257.59503443 -.00000109  00000-0  00000-0 0  9990
2 02863   3.0574  92.0858 0059885 247.9139 327.9568  1.09897498125702

Suivez OPS 9332 en temps réel avec AllMySat

Download on the App Store